This demonstration page uses our WeatherBlox Daily Observations layout. Learn more.

Left ArrowRight Arrow

Hourly Observations for May 17, 2021

Temp ( °F °C ) Dew Point ( °F °C ) Humidity (%) Winds ( mph kmh ) Pressure ( in mb ) Visibility ( mi km ) Precip ( " mm )
12:53 am 00:53 Clear 68 20 50 10 53 53 SW 3 6 29.90 1013 10 16 0.00 0.00
1:53 am 01:53 Clear 66 18.9 50 10 56 56 Calm 29.91 1013 10 16 0.00 0.00
2:53 am 02:53 Clear 64 17.8 49 9.4 58 58 S 9 15 29.91 1013 10 16 0.00 0.00
3:53 am 03:53 Clear 63 17.2 49 9.4 60 60 S 6 9 29.93 1013 10 16 0.00 0.00
4:53 am 04:53 Clear 62 16.7 48 8.9 60 60 S 5 7 29.93 1014 10 16 0.00 0.00
5:53 am 05:53 Sunny 57 13.9 50 10 78 78 Calm 29.94 1014 10 16 0.00 0.00
6:53 am 06:53 Sunny 60 15.6 51 10.6 72 72 Calm 29.95 1014 10 16 0.00 0.00
7:53 am 07:53 Sunny 64 17.8 49 9.4 58 58 SSE 3 6 29.96 1014 10 16 0.00 0.00
8:53 am 08:53 Sunny 67 19.4 49 9.4 53 53 S 7 11 29.96 1014 10 16 0.00 0.00
9:53 am 09:53 Sunny 71 21.7 49 9.4 46 46 Calm 29.95 1014 10 16 0.00 0.00
10:53 am 10:53 Sunny 73 22.8 51 10.6 46 46 undefined N/A 29.95 1014 10 16 0.00 0.00
11:53 am 11:53 Sunny 77 25 52 11.1 42 42 S 8 13 29.94 1014 10 16 0.00 0.00
12:53 pm 12:53 Sunny 79 26.1 52 11.1 39 39 S 5 7 29.92 1013 10 16 0.00 0.00
1:53 pm 13:53 Sunny 80 26.7 52 11.1 38 38 SSW 9 15 29.90 1013 10 16 0.00 0.00
2:53 pm 14:53 Sunny 82 27.8 51 10.6 34 34 SE 9 15 29.89 1012 10 16 0.00 0.00
3:53 pm 15:53 Sunny 83 28.3 49 9.4 31 31 S 14 22 29.87 1012 10 16 0.00 0.00
4:53 pm 16:53 Sunny 84 28.9 48 8.9 29 29 S 12 19 29.86 1011 10 16 0.00 0.00
5:53 pm 17:53 Sunny 83 28.3 50 10 32 32 S 14 22 29.86 1011 10 16 0.00 0.00
6:53 pm 18:53 Sunny 82 27.8 50 10 33 33 S 14 22 29.86 1011 10 16 0.00 0.00
7:53 pm 19:53 Sunny 78 25.6 54 12.2 43 43 SSE 8 13 29.87 1012 10 16 0.00 0.00
8:53 pm 20:53 Clear 75 23.9 53 11.7 46 46 S 9 15 29.89 1012 10 16 0.00 0.00
9:53 pm 21:53 Clear 71 21.7 53 11.7 53 53 Calm 29.92 1013 10 16 0.00 0.00
10:53 pm 22:53 Clear 69 20.6 53 11.7 57 57 SSE 3 6 29.93 1014 10 16 0.00 0.00
11:53 pm 23:53 Clear 69 20.6 47 8.3 45 45 S 8 13 29.94 1014 10 16 0.00 0.00

Powered by AerisWeather